Location: Eschertshofen
(49.3064°N, 11.5756°E)
Time: 12:49:54
(UTC+00:00)

USA 238 DEB - Pass Details

Date: 18 September 2020
Orbit: 1006 x 1206 km, 63.4° (Epoch: 15 October)

Event Time Altitude Azimuth Distance (km) Brightness Sun altitude
Rises 17:41:09 0° 314° (NW) 3,898 7.6 -4.3°
Reaches altitude 10° 17:43:56 10° 321° (NW) 2,970 6.8 -4.8°
Maximum altitude 17:50:40 44° 32° (NNE) 1,545 4.4 -5.9°
Drops below altitude 10° 17:57:41 10° 103° (ESE) 3,093 5.4 -7.0°
Enters shadow 17:58:12 - 105° (ESE) 3,263 5.5 -7.1°
